TimeEST,TemperatureF,Dew PointF,Humidity,Sea Level PressureIn,VisibilityMPH,Wind Direction,Wind SpeedMPH,Gust SpeedMPH,PrecipitationIn,Events,Conditions,WindDirDegrees,DateUTC
12:14 AM,44.6,44.6,100,29.98,10.0,NW,8.1,-,0.01,Rain,Rain,320,2012-12-05 05:14:00
12:56 AM,43.9,43.0,97,29.99,10.0,NW,4.6,-,0.07,Rain,Rain,310,2012-12-05 05:56:00
1:56 AM,43.9,41.0,90,29.99,10.0,West,8.1,-,0.02,,Mostly Cloudy,260,2012-12-05 06:56:00
2:56 AM,43.0,38.8,85,30.01,10.0,West,10.4,-,N/A,,Partly Cloudy,270,2012-12-05 07:56:00
3:56 AM,41.9,36.9,82,30.02,10.0,West,10.4,-,N/A,,Mostly Cloudy,280,2012-12-05 08:56:00
4:03 AM,42.8,37.4,81,30.01,10.0,West,8.1,-,N/A,,Mostly Cloudy,270,2012-12-05 09:03:00
4:35 AM,42.8,35.6,76,30.01,10.0,WNW,11.5,-,N/A,,Overcast,290,2012-12-05 09:35:00
4:56 AM,43.0,34.9,73,30.03,10.0,WNW,18.4,-,N/A,,Overcast,290,2012-12-05 09:56:00
5:56 AM,41.0,32.9,73,30.04,10.0,WNW,15.0,-,N/A,,Partly Cloudy,290,2012-12-05 10:56:00
6:16 AM,41.0,33.8,76,30.05,10.0,WNW,15.0,-,N/A,,Mostly Cloudy,290,2012-12-05 11:16:00
6:56 AM,41.0,32.0,70,30.07,10.0,WNW,11.5,-,N/A,,Mostly Cloudy,290,2012-12-05 11:56:00
7:56 AM,39.9,32.0,73,30.09,10.0,WNW,19.6,-,N/A,,Overcast,290,2012-12-05 12:56:00
9:56 AM,35.6,32.0,87,30.12,10.0,NNW,16.1,-,N/A,,Overcast,330,2012-12-05 14:56:00
10:56 AM,34.9,27.1,73,30.15,10.0,NW,21.9,27.6,0.00,,Overcast,310,2012-12-05 15:56:00
11:56 AM,34.9,26.1,70,30.17,10.0,NW,15.0,23.0,N/A,,Mostly Cloudy,310,2012-12-05 16:56:00
12:56 PM,34.0,24.1,67,30.18,10.0,NW,23.0,-,0.00,,Overcast,310,2012-12-05 17:56:00
1:56 PM,32.0,26.1,79,30.19,4.0,WNW,16.1,24.2,0.00,Snow,Light Snow,300,2012-12-05 18:56:00
2:56 PM,31.1,26.1,82,30.21,10.0,WNW,11.5,-,0.00,,Overcast,300,2012-12-05 19:56:00
3:15 PM,30.2,24.8,80,30.19,1.8,NNW,17.3,-,0.00,Snow,Light Snow,330,2012-12-05 20:15:00
3:17 PM,30.2,26.6,86,30.19,0.8,NNW,13.8,-,0.00,Snow,Light Snow,330,2012-12-05 20:17:00
3:56 PM,30.0,25.2,82,30.25,10.0,NW,20.7,27.6,0.00,Snow,Light Snow,310,2012-12-05 20:56:00
4:09 PM,28.4,24.8,86,30.22,1.0,NW,18.4,25.3,0.01,Snow,Light Snow,320,2012-12-05 21:09:00
4:56 PM,28.0,20.1,72,30.27,7.0,NW,17.3,21.9,0.01,Snow,Light Snow,310,2012-12-05 21:56:00
5:56 PM,28.0,18.1,66,30.30,10.0,NNW,16.1,20.7,0.00,,Mostly Cloudy,330,2012-12-05 22:56:00
6:56 PM,27.1,19.0,72,30.32,10.0,WNW,15.0,20.7,0.00,Snow,Light Snow,300,2012-12-05 23:56:00
7:56 PM,27.1,20.1,75,30.33,10.0,NW,11.5,-,0.00,Snow,Light Snow,310,2012-12-06 00:56:00
8:56 PM,27.1,18.1,69,30.34,8.0,NW,11.5,-,0.00,Snow,Light Snow,310,2012-12-06 01:56:00
9:56 PM,27.1,17.1,66,30.34,10.0,NW,10.4,-,0.00,,Overcast,310,2012-12-06 02:56:00
10:56 PM,27.1,16.2,63,30.34,10.0,North,10.4,16.1,N/A,,Overcast,360,2012-12-06 03:56:00
11:56 PM,26.1,15.1,63,30.36,10.0,North,9.2,-,N/A,,Overcast,360,2012-12-06 04:56:00